Temperature
2 2 2 2 2 1 1 1 1 1 1 2 2 2 2 2 2 2 2 2 2 2 2 2 2 2 2 2 2 2 2 2 2 3 3 3 3 3 3 3 3 3 3
1 1 1 1 1 1 1 1 1 1 1 1 1 1 1 1 1 1 1 1 1 1 1 1 2 2 2 2 2 2 2 2 1 2 2 2 2 2 2 2 2 2 2
0 0 0 0 0 0 0 0 0 0 0 0 0 0 0 0 0 0 0 1 1 1 1 1 1 1 1 1 1 1 1 1 1 1 1 2 2 2 2 2 2 2 2
-0 -0 -0 0 -0 -0 -0 -0 -0 -0 -0 -0 -0 -0 -0 -0 -0 -0 -0 -0 0 0 0 0 0 0 0 0 0 0 0 0 0 0 0 1 1 1 1 1 1 1 1
-1 -1 -1 -1 -1 -1 -1 -1 -1 -1 -1 -1 -1 -1 -1 -1 -1 -1 -1 -1 -1 -0 -0 -0 -0 -0 -0 -0 -0 -0 -0 -0 -0 -0 -0 -0 -0 -0 -0 -0 -0 0 0
-1 -1 -1 -1 -1 -1 -1 -1 -1 -1 -1 -1 -1 -1 -1 -1 -1 -1 -1 -1 -1 -1 -1 -1 -1 -1 -1 -1 -1 -1 -1 -1 -1 -1 -1 -1 -1 -1 -1 -1 -1 -1 -1
-2 -2 -2 -2 -2 -2 -2 -2 -2 -2 -1 -1 -2 -2 -2 -2 -2 -2 -2 -1 -1 -1 -1 -1 -1 -1 -1 -1 -1 -2 -2 -2 -2 -2 -2 -1 -1 -1 -2 -2 -2 -2 -2
-2 -2 -2 -2 -2 -2 -2 -2 -2 -2 -2 -2 -2 -2 -2 -2 -2 -2 -2 -2 -2 -2 -2 -2 -2 -2 -2 -2 -2 -2 -2 -2 -2 -2 -2 -2 -2 -2 -2 -2 -2 -2 -2
-2 -3 -3 -3 -3 -2 -2 -2 -2 -2 -2 -2 -3 -3 -3 -2 -3 -3 -3 -3 -2 -2 -2 -2 -2 -2 -2 -2 -3 -3 -2 -2 -2 -2 -2 -2 -2 -2 -3 -3 -3 -3 -3
-3 -3 -3 -3 -3 -3 -3 -3 -3 -3 -3 -3 -3 -3 -3 -3 -3 -3 -3 -3 -3 -3 -3 -3 -3 -3 -3 -3 -3 -3 -3 -3 -3 -3 -3 -3 -3 -3 -3 -3 -3 -3 -4
-3 -3 -3 -3 -3 -3 -3 -3 -3 -3 -3 -3 -3 -3 -3 -3 -3 -3 -3 -3 -3 -3 -3 -3 -3 -3 -3 -3 -3 -3 -3 -3 -3 -3 -3 -3 -3 -3 -3 -3 -3 -4 -4
-4 -4 -4 -4 -4 -4 -4 -4 -4 -4 -4 -4 -4 -4 -3 -3 -3 -3 -3 -4 -4 -4 -3 -3 -3 -3 -3 -3 -3 -3 -3 -4 -3 -4 -4 -3 -3 -3 -3 -4 -4 -4 -4
-4 -4 -4 -4 -4 -4 -4 -4 -4 -4 -4 -4 -4 -4 -4 -3 -4 -4 -4 -4 -4 -4 -4 -4 -4 -4 -4 -4 -4 -4 -4 -4 -4 -4 -4 -4 -4 -4 -4 -4 -4 -4 -4
-4 -4 -4 -4 -4 -4 -4 -5 -5 -4 -4 -4 -4 -4 -4 -4 -4 -4 -4 -4 -4 -4 -4 -4 -4 -4 -4 -4 -4 -4 -4 -4 -4 -4 -4 -4 -4 -4 -4 -5 -4 -4 -4
-5 -5 -5 -5 -5 -5 -5 -5 -5 -5 -5 -5 -5 -5 -4 -4 -4 -4 -4 -4 -4 -4 -4 -4 -4 -4 -4 -4 -5 -5 -5 -5 -5 -5 -5 -5 -5 -5 -5 -5 -5 -5 -5
-5 -5 -5 -5 -5 -5 -5 -5 -5 -5 -5 -5 -5 -5 -5 -5 -5 -5 -5 -5 -5 -5 -5 -5 -5 -5 -5 -5 -5 -5 -5 -5 -5 -5 -5 -5 -5 -5 -5 -5 -5 -5 -5
-5 -5 -5 -5 -6 -5 -5 -5 -5 -5 -5 -5 -5 -5 -5 -5 -5 -5 -5 -5 -5 -5 -5 -5 -5 -5 -5 -5 -5 -5 -5 -5 -6 -5 -5 -6 -6 -6 -6 -6 -6 -6 -6
-6 -6 -6 -6 -6 -6 -6 -6 -6 -5 -5 -5 -5 -5 -5 -5 -5 -5 -5 -5 -5 -5 -5 -5 -6 -6 -6 -6 -6 -6 -6 -6 -6 -6 -6 -6 -6 -6 -6 -6 -6 -6 -6
-6 -6 -6 -6 -6 -6 -6 -6 -6 -6 -6 -6 -6 -6 -6 -6 -6 -6 -6 -6 -6 -6 -6 -6 -6 -6 -6 -6 -6 -6 -6 -6 -6 -6 -6 -6 -6 -6 -6 -7 -7 -7 -6
-6 -6 -6 -6 -6 -6 -6 -6 -6 -6 -6 -6 -6 -6 -6 -6 -6 -6 -6 -6 -6 -6 -6 -6 -6 -6 -6 -6 -6 -6 -6 -6 -7 -7 -7 -7 -7 -7 -7 -7 -7 -7 -7
-6 -6 -6 -6 -6 -6 -6 -6 -6 -6 -6 -6 -6 -7 -7 -6 -7 -7 -7 -7 -7 -7 -7 -7 -7 -6 -6 -6 -6 -6 -6 -7 -7 -7 -7 -7 -7 -7 -7 -7 -7 -7 -7
-6 -6 -6 -6 -7 -7 -7 -7 -7 -7 -7 -7 -7 -7 -7 -7 -7 -7 -7 -7 -7 -7 -7 -7 -7 -7 -7 -7 -7 -7 -7 -7 -7 -7 -7 -7 -7 -7 -7 -7 -7 -7 -7
-6 -7 -7 -7 -7 -7 -7 -7 -7 -7 -7 -7 -7 -7 -7 -7 -7 -7 -7 -7 -7 -7 -7 -7 -7 -7 -7 -7 -7 -7 -7 -7 -7 -7 -7 -7 -7 -7 -7 -7 -7 -7 -7
-7 -7 -7 -7 -7 -7 -7 -7 -7 -7 -7 -7 -7 -7 -7 -7 -7 -7 -7 -7 -7 -7 -7 -7 -7 -7 -7 -7 -7 -7 -7 -7 -7 -7 -7 -7 -7 -7 -7 -7 -7 -7 -7
-7 -7 -7 -7 -7 -7 -7 -7 -7 -7 -7 -7 -7 -7 -7 -7 -7 -7 -7 -7 -8 -8 -7 -7 -7 -7 -7 -7 -7 -7 -7 -7 -7 -7 -7 -7 -8 -7 -7 -7 -7 -7 -7
-7 -7 -7 -7 -7 -7 -8 -8 -8 -8 -8 -8 -8 -8 -8 -8 -8 -8 -8 -8 -8 -8 -8 -7 -7 -7 -7 -7 -7 -7 -7 -7 -7 -7 -7 -7 -7 -7 -7 -7 -7 -7 -7
Wind_Speed
3 3 3 3 3 3 3 3 3 3 3 3 3 3 3 3 2 2 3 3 3 3 3 3 3 3 3 3 2 2 2 3 4 3 2 1 1 2 3 4 4 4 4
3 3 3 3 2 3 3 3 3 3 3 3 3 3 3 3 3 3 3 3 3 3 3 3 4 3 3 3 3 3 3 3 4 4 2 2 2 2 1 2 3 4 5
3 2 2 3 3 3 3 4 3 3 3 2 2 2 3 3 3 3 3 4 4 4 4 4 4 3 3 3 3 3 3 3 3 3 3 2 1 1 1 1 2 3 4
3 3 2 3 3 3 3 3 3 3 2 2 2 3 3 3 3 3 3 3 3 3 3 3 4 4 4 4 4 4 4 3 3 3 3 2 2 1 1 1 2 2 3
3 3 3 3 3 3 3 3 3 3 2 2 2 2 2 2 2 2 3 3 3 3 2 3 3 4 5 4 4 4 4 4 3 3 3 2 2 1 2 2 3 3 3
3 3 3 3 3 3 3 3 3 3 2 2 2 2 2 2 3 3 2 2 2 3 3 2 3 4 4 5 6 5 5 5 4 4 3 4 4 3 2 2 2 3 3
2 2 2 2 2 3 3 3 2 2 2 2 2 2 2 3 3 3 2 1 2 2 2 2 2 2 3 2 4 4 5 5 5 5 5 5 4 4 3 3 3 3 4
2 2 2 2 3 3 3 2 2 2 1 2 2 2 2 3 4 3 2 1 1 2 2 2 3 3 3 3 3 3 3 4 4 4 5 5 5 4 4 4 3 3 3
2 2 3 3 3 3 3 3 2 2 2 2 2 2 2 3 4 4 2 1 1 2 2 2 3 3 5 4 3 3 3 4 4 5 5 5 5 4 3 1 1 2 4
3 3 3 2 3 3 3 2 2 1 1 2 2 2 2 3 4 4 2 1 1 2 2 2 3 3 4 4 3 4 4 4 3 2 2 2 2 3 3 2 3 3 3
3 2 2 2 3 2 2 2 1 1 1 1 2 2 3 3 4 3 3 1 1 2 2 2 2 3 4 4 3 3 4 3 2 2 1 1 1 1 2 2 2 3 4
2 2 2 2 2 2 2 2 1 0 1 1 2 2 2 3 4 4 4 3 2 1 2 2 2 4 5 5 4 3 4 2 1 1 1 1 1 2 2 2 3 3 4
2 2 2 3 2 2 1 1 1 1 1 1 1 2 3 3 4 5 4 4 4 2 2 3 4 4 4 3 3 4 2 1 1 1 2 2 2 2 2 2 2 3 3
1 2 2 2 3 3 2 1 1 1 1 1 2 2 3 3 3 3 2 3 3 3 2 3 4 4 3 3 3 2 1 1 1 2 2 2 1 1 2 1 2 2 2
1 2 2 2 2 2 2 2 1 1 1 2 2 2 2 3 4 6 4 2 2 2 2 1 2 2 1 2 1 1 1 1 1 1 1 1 2 2 2 2 2 2 2
1 1 1 1 1 2 2 3 4 3 4 4 4 3 3 4 6 6 5 4 4 3 2 1 1 1 2 2 2 2 2 1 1 1 1 2 2 2 2 2 2 1 2
1 1 1 1 1 1 2 2 3 5 5 5 5 5 5 6 6 6 5 5 4 3 2 1 1 1 2 2 2 2 2 2 2 1 1 1 1 2 2 2 2 2 2
0 1 1 1 1 1 1 1 1 2 3 3 5 6 6 6 6 6 6 4 3 3 2 1 1 2 2 2 2 2 2 2 2 1 1 1 1 1 2 2 2 2 2
0 1 1 1 1 1 1 1 1 2 2 3 3 4 6 6 6 6 5 3 2 2 2 2 2 2 2 2 2 2 2 2 2 1 2 2 1 1 2 2 2 3 3
1 1 1 1 1 1 1 1 2 2 2 2 3 3 4 4 3 4 4 3 2 2 2 2 2 2 2 2 2 2 2 2 2 1 2 2 2 2 2 2 2 3 2
1 1 2 1 1 1 1 1 1 2 2 2 3 3 4 3 2 3 3 3 2 3 3 3 3 2 2 2 2 2 2 2 2 2 2 2 2 2 2 2 2 3 2
0 1 1 1 1 1 1 1 1 2 2 2 3 3 5 3 2 2 3 3 3 3 2 2 3 2 2 2 2 2 2 2 2 2 2 2 2 2 2 2 2 2 2
0 1 1 1 1 1 2 1 1 2 2 2 3 3 3 2 2 2 3 3 3 3 3 3 2 2 3 3 3 2 2 2 3 2 2 2 2 2 2 2 2 2 2
1 1 1 1 1 1 1 1 2 2 2 2 2 2 2 2 2 3 3 3 3 3 3 3 3 3 4 4 4 4 4 4 4 3 3 2 2 2 2 2 2 2 2
1 1 1 1 1 1 1 1 2 2 2 3 3 2 2 2 2 3 3 3 3 3 4 4 3 4 5 5 5 5 5 5 4 3 2 1 2 2 2 2 2 2 2
1 1 1 1 1 1 1 2 2 2 2 3 3 3 3 3 3 3 3 3 3 3 4 4 5 5 6 6 6 6 6 5 4 3 2 1 1 1 1 1 1 1 1
Wind_Direction
314 310 310 302 300 298 290 290 288 286 289 279 276 271 267 263 258 241 243 233 230 246 245 234 240 232 228 225 212 212 217 212 244 271 263 280 259 272 315 317 311 304 306
318 322 321 322 323 315 306 303 298 290 292 284 280 275 268 262 250 236 239 237 226 232 242 237 243 233 230 228 213 215 223 217 222 257 272 281 266 254 283 300 320 319 311
326 327 329 332 325 316 308 305 305 300 301 301 290 273 273 268 258 247 238 239 233 228 233 233 234 225 229 231 221 217 223 225 212 225 257 271 278 293 301 298 303 306 313
328 321 313 312 307 305 306 306 306 304 299 296 291 282 275 273 268 259 248 246 244 239 231 231 232 226 225 225 229 223 216 216 217 219 242 260 267 273 260 277 302 292 302
317 311 303 307 308 310 308 305 310 311 300 291 291 295 294 279 274 257 246 238 237 244 247 241 238 233 230 229 235 225 214 213 219 225 238 254 256 260 267 280 287 301 294
300 299 308 316 317 313 308 306 312 311 307 306 298 298 299 294 290 277 252 228 232 234 243 250 249 248 251 254 261 253 233 220 220 223 235 236 246 247 269 271 285 300 295
300 306 319 320 312 307 305 308 308 304 309 316 311 312 306 296 297 295 288 256 240 242 241 244 260 264 266 249 268 273 269 263 248 232 231 236 238 231 235 251 256 274 277
306 314 322 321 314 312 313 311 309 301 299 304 306 315 316 310 313 314 302 316 285 266 255 243 248 265 259 239 230 245 254 260 260 246 228 234 241 234 226 241 255 283 279
311 311 315 314 309 309 304 303 309 319 316 309 306 306 310 308 313 314 319 305 296 287 271 258 251 255 262 252 234 239 257 266 276 270 266 258 259 265 266 231 253 283 291
304 306 309 308 304 300 293 296 307 308 308 319 319 315 303 299 309 311 317 292 294 298 292 280 270 259 266 261 236 230 246 257 254 281 300 300 286 280 277 236 222 249 281
319 320 324 320 310 306 315 310 304 316 339 337 325 316 311 314 320 315 315 304 254 275 288 288 282 289 291 288 279 244 249 258 236 232 248 271 281 277 290 286 245 232 249
337 343 337 328 327 341 355 341 333 357 353 333 327 322 317 320 326 320 322 319 308 279 283 285 283 291 295 297 293 285 287 294 213 218 251 278 285 282 279 290 287 271 258
354 354 344 341 343 347 346 337 353 18 4 331 326 325 325 327 322 324 325 328 323 310 280 285 298 308 317 323 320 315 316 266 229 242 252 268 262 265 279 302 307 305 301
347 342 345 352 352 354 352 347 359 1 343 331 329 329 326 324 321 325 325 323 321 318 316 313 322 331 339 337 337 343 347 257 237 248 261 268 280 281 275 279 286 301 308
339 336 344 348 349 347 346 346 340 327 315 304 300 300 309 318 320 325 322 308 297 294 323 337 348 345 344 344 340 333 332 337 314 275 269 285 294 294 295 295 288 296 286
329 335 336 343 345 348 348 347 353 343 337 339 336 329 320 320 322 330 335 334 331 334 356 3 352 350 344 339 332 331 335 328 312 296 281 271 275 285 299 307 305 290 287
253 302 318 335 341 343 347 354 344 344 348 352 353 349 345 340 341 342 345 350 359 16 25 10 345 335 333 330 323 322 319 316 310 298 292 288 282 286 291 300 305 304 298
297 308 319 316 325 329 330 333 335 337 341 343 346 350 352 352 356 358 359 7 15 19 15 352 332 331 331 325 320 318 314 317 317 312 306 307 307 298 292 293 294 293 295
314 303 311 322 325 327 339 347 343 338 338 336 342 345 353 355 2 8 12 19 10 0 357 352 345 338 333 326 319 312 304 303 309 312 309 307 299 292 289 290 291 295 298
314 315 338 341 337 343 353 355 348 343 341 340 338 338 344 359 8 3 9 7 4 353 346 339 335 332 329 321 315 311 314 315 316 315 310 304 293 284 283 287 287 291 294
332 326 348 355 340 333 335 341 337 334 332 330 326 335 351 3 358 354 354 352 347 341 336 333 330 329 326 322 321 323 323 321 321 316 306 299 294 290 285 284 286 288 291
345 344 343 329 329 335 342 345 349 343 339 336 330 336 348 360 351 345 341 337 333 329 324 321 324 324 322 319 320 321 321 318 317 312 304 299 299 296 296 294 295 295 292
45 27 1 347 345 338 358 1 350 346 340 332 330 333 339 344 342 338 334 332 332 333 329 329 331 332 322 315 308 299 292 291 289 288 289 293 293 292 294 294 295 298 295
62 41 16 357 351 345 349 346 345 343 341 338 332 327 329 332 333 331 331 332 334 331 325 322 320 321 320 318 314 304 293 288 285 277 271 274 284 288 292 296 300 301 302
59 40 5 338 334 335 340 339 339 336 330 331 331 327 329 330 328 327 329 331 329 330 328 323 317 317 316 315 310 305 305 304 299 290 276 262 270 274 286 296 307 320 319
37 14 352 338 332 327 323 319 319 319 316 317 321 322 323 324 322 321 323 325 327 328 326 324 320 317 316 316 314 314 315 311 306 300 282 253 260 264 283 295 314 321 320
Height
1467 1466 1466 1465 1465 1465 1465 1464 1464 1464 1464 1463 1463 1463 1463 1464 1464 1464 1464 1465 1465 1466 1467 1467 1468 1469 1470 1471 1472 1473 1474 1475 1475 1474 1476 1476 1476 1477 1476 1476 1476 1475 1475
1464 1463 1463 1462 1462 1462 1462 1461 1461 1461 1460 1460 1460 1460 1460 1460 1460 1460 1460 1461 1461 1462 1462 1463 1464 1465 1466 1466 1468 1469 1470 1471 1471 1470 1471 1471 1472 1472 1472 1472 1471 1471 1470
1461 1461 1460 1460 1459 1459 1459 1459 1458 1458 1457 1457 1457 1457 1457 1457 1457 1457 1457 1457 1457 1457 1458 1458 1459 1460 1461 1462 1463 1464 1465 1466 1466 1466 1466 1466 1466 1467 1467 1467 1467 1467 1466
1459 1458 1457 1457 1457 1457 1456 1456 1456 1455 1454 1454 1454 1454 1454 1453 1453 1453 1453 1454 1454 1454 1454 1455 1455 1456 1457 1458 1458 1459 1460 1461 1462 1462 1461 1462 1462 1462 1462 1461 1461 1461 1461
1457 1455 1454 1454 1454 1454 1454 1453 1453 1452 1452 1451 1451 1451 1450 1450 1450 1450 1450 1450 1450 1451 1451 1452 1452 1452 1453 1454 1454 1455 1456 1456 1457 1457 1457 1457 1457 1457 1457 1457 1456 1456 1456
1453 1453 1452 1451 1451 1451 1451 1450 1450 1449 1449 1449 1448 1448 1448 1447 1447 1447 1447 1447 1447 1448 1448 1448 1449 1449 1449 1450 1451 1451 1452 1452 1452 1453 1453 1453 1453 1453 1454 1453 1452 1451 1451
1450 1450 1449 1449 1448 1448 1448 1447 1447 1446 1446 1446 1446 1445 1445 1445 1445 1445 1444 1445 1445 1445 1445 1445 1445 1445 1446 1446 1447 1447 1447 1448 1449 1449 1449 1449 1449 1450 1450 1449 1449 1448 1447
1448 1448 1447 1446 1446 1445 1445 1444 1444 1444 1443 1443 1444 1443 1443 1443 1443 1442 1442 1442 1442 1442 1442 1442 1442 1442 1443 1443 1443 1443 1444 1444 1445 1445 1445 1446 1446 1446 1446 1446 1446 1445 1444
1445 1445 1445 1444 1444 1443 1442 1442 1442 1442 1441 1441 1442 1441 1441 1441 1440 1440 1440 1439 1439 1439 1439 1439 1439 1439 1439 1440 1440 1440 1440 1440 1441 1442 1442 1442 1442 1443 1443 1443 1442 1441 1439
1443 1443 1443 1442 1442 1441 1440 1440 1440 1440 1440 1440 1440 1440 1439 1439 1438 1438 1438 1437 1437 1436 1436 1436 1436 1436 1436 1436 1436 1436 1436 1437 1437 1438 1438 1438 1438 1439 1439 1439 1438 1437 1436
1441 1441 1441 1440 1440 1439 1438 1438 1438 1438 1438 1438 1438 1438 1437 1437 1436 1436 1436 1435 1435 1434 1434 1434 1433 1433 1433 1433 1433 1433 1433 1434 1434 1434 1434 1434 1434 1434 1434 1434 1434 1434 1434
1440 1440 1439 1439 1438 1437 1437 1437 1437 1436 1436 1436 1436 1436 1436 1435 1435 1434 1434 1434 1433 1432 1432 1431 1431 1431 1431 1431 1431 1430 1430 1431 1430 1430 1430 1430 1430 1430 1430 1430 1430 1430 1430
1438 1438 1437 1437 1436 1436 1436 1435 1435 1435 1435 1435 1434 1434 1434 1434 1433 1433 1432 1432 1431 1430 1430 1429 1429 1428 1428 1428 1427 1427 1427 1427 1427 1427 1426 1426 1426 1426 1426 1426 1426 1426 1426
1436 1436 1436 1435 1435 1435 1434 1434 1434 1434 1434 1433 1433 1433 1432 1432 1432 1431 1431 1430 1429 1429 1428 1427 1426 1426 1425 1425 1425 1424 1424 1424 1424 1424 1423 1423 1423 1423 1423 1423 1422 1422 1421
1435 1435 1434 1434 1434 1433 1433 1433 1433 1433 1433 1433 1432 1432 1431 1430 1430 1430 1429 1428 1427 1427 1426 1425 1424 1424 1423 1423 1422 1422 1422 1421 1421 1421 1421 1420 1420 1420 1420 1419 1419 1419 1418
1433 1433 1433 1433 1433 1432 1432 1432 1432 1432 1432 1431 1431 1431 1430 1430 1429 1428 1427 1426 1426 1425 1424 1423 1422 1422 1421 1420 1420 1419 1419 1419 1418 1418 1418 1418 1417 1417 1417 1417 1416 1416 1416
1432 1432 1432 1432 1431 1431 1431 1431 1430 1430 1430 1429 1429 1429 1428 1428 1427 1426 1425 1424 1424 1423 1422 1421 1421 1420 1419 1419 1418 1417 1417 1417 1416 1416 1415 1415 1415 1415 1414 1414 1414 1414 1413
1431 1431 1431 1431 1431 1431 1430 1430 1429 1428 1428 1428 1428 1427 1427 1426 1426 1425 1424 1423 1422 1421 1420 1420 1419 1419 1418 1417 1416 1416 1415 1415 1414 1413 1413 1413 1413 1412 1412 1412 1411 1411 1411
1430 1430 1430 1430 1430 1430 1430 1429 1429 1428 1427 1427 1426 1426 1426 1425 1424 1424 1423 1421 1420 1420 1419 1419 1418 1417 1417 1416 1415 1414 1413 1413 1412 1412 1411 1411 1411 1410 1410 1410 1409 1409 1409
1430 1430 1430 1430 1429 1429 1429 1429 1428 1428 1427 1426 1426 1425 1425 1424 1423 1422 1422 1421 1420 1419 1418 1418 1417 1416 1416 1415 1414 1413 1412 1411 1411 1410 1410 1410 1409 1409 1408 1408 1408 1407 1407
1429 1429 1429 1429 1429 1429 1428 1428 1428 1427 1427 1426 1425 1425 1424 1423 1422 1421 1421 1420 1419 1418 1418 1417 1416 1415 1414 1413 1412 1411 1411 1410 1409 1409 1408 1408 1407 1407 1407 1406 1406 1405 1405
1428 1428 1428 1428 1428 1428 1428 1428 1427 1427 1426 1425 1425 1424 1423 1423 1422 1421 1420 1419 1418 1418 1417 1416 1415 1414 1413 1412 1411 1410 1410 1409 1408 1407 1407 1406 1406 1405 1405 1405 1404 1403 1403
1428 1428 1428 1428 1428 1428 1427 1427 1426 1426 1425 1425 1424 1423 1422 1421 1421 1420 1419 1418 1417 1417 1416 1415 1414 1413 1412 1412 1411 1410 1409 1408 1407 1406 1405 1404 1404 1404 1403 1403 1402 1402 1401
1427 1427 1427 1427 1427 1427 1426 1426 1425 1425 1424 1424 1423 1422 1421 1421 1420 1419 1418 1417 1417 1416 1415 1414 1413 1412 1412 1411 1410 1409 1408 1407 1406 1405 1404 1403 1403 1402 1402 1402 1401 1401 1400
1426 1426 1426 1426 1426 1425 1425 1425 1424 1424 1423 1423 1422 1421 1420 1420 1419 1418 1417 1416 1416 1415 1414 1413 1412 1411 1411 1410 1409 1408 1407 1406 1405 1404 1403 1402 1402 1401 1401 1401 1400 1400 1400
1426 1425 1425 1425 1425 1424 1424 1424 1423 1423 1422 1421 1421 1420 1419 1419 1418 1417 1416 1415 1415 1414 1413 1412 1411 1410 1410 1409 1408 1407 1406 1405 1404 1403 1403 1402 1401 1401 1400 1400 1400 1399 1399